Location: Unspecified
(40.7945°N, 0.0000°E)
Time: 14:13:58
(UTC+00:00)

Vanguard 2 Rocket - Visible Passes

Search period start: 23 January 2021 00:00
Search period end: 02 February 2021 00:00
Orbit: 554 x 3325 km, 32.9° (Epoch: 22 January)

Date Brightness Start Highest point End Pass type
(mag) Time Alt. Az. Time Alt. Az. Time Alt. Az.
23 Jan 8.0 18:58:09 10° W 19:05:17 36° SSW 19:07:54 23° SSE visible
24 Jan 8.2 17:56:35 10° W 18:05:50 45° SSW 18:11:19 10° ESE visible
24 Jan 8.7 20:13:47 10° WSW 20:17:41 18° SW 20:17:41 18° SW visible
25 Jan 8.3 19:12:08 10° W 19:18:51 29° SSW 19:21:40 19° SSE visible
26 Jan 8.5 18:10:21 10° W 18:19:31 41° SSW 18:25:01 10° SE visible
26 Jan 9.2 20:29:12 10° WSW 20:31:13 12° SW 20:31:31 12° SW visible
27 Jan 8.8 19:26:22 10° W 19:32:14 22° SW 19:35:35 13° S visible
28 Jan 8.9 18:24:15 10° W 18:33:01 34° SSW 18:38:28 10° SE visible
29 Jan 9.2 19:41:17 10° WSW 19:45:23 15° SW 19:48:40 10° S visible
30 Jan 9.2 18:38:24 10° W 18:46:19 26° SW 18:51:34 10° SSE visible
31 Jan 9.3 17:35:51 10° W 17:46:53 38° SSW 17:53:32 10° SE visible
01 Feb 9.5 18:53:02 10° W 18:59:22 18° SW 19:04:00 10° S visible
